Weather History for PADK - November, 2013

Change the Weather History Date:

Sunday, November 10, 2013

  Actual Average Record
Temperature  
Mean Temperature 40 °F -  
Max Temperature 42 °F 42 °F 55 °F (1965)
Min Temperature 37 °F 35 °F 23 °F (1964)
Degree Days  
Heating Degree Days 26    
Moisture  
Dew Point 31 °F    
Average Humidity 70    
Maximum Humidity 81    
Minimum Humidity 55    
Precipitation  
Precipitation 0.00 in - - ()
Sea Level Pressure  
Sea Level Pressure 30.67 in    
Wind  
Wind Speed 21 mph (WSW)    
Max Wind Speed 30 mph    
Max Gust Speed 38 mph    
Visibility 10 miles    
Events      
Averages and records for this station are not official NWS values.
T = Trace of Precipitation, MM = Missing Value Source: NWS Daily Summary

Daily Weather History Graph

Daily Weather History Graph

Search for Another Location

Airport or City:

Trip Planner

Search our weather history database for the weather conditions in past years. The results will help you decide how hot, cold, wet, or windy it might be!

Date:

Astronomy

Nov. 10, 2013 Rise Set
Actual Time 8:58 AM HST 6:02 PM HST
Civil Twilight 8:21 AM HST 6:38 PM HST
Nautical Twilight 7:40 AM HST 7:19 PM HST
Astronomical Twilight 7:01 AM HST 7:58 PM HST
Moon 3:01 PM HST (11/10) 1:03 AM HST (11/10)
Length of Visible Light 10h 17m
Length of Day
9h 04m
First Quarter, 57% of the Moon is Illuminated
Nov 10
First Quarter
Nov 17
Full
Nov 25
Last Quarter
Dec 2
New
Dec 9
First Quarter

Hourly Weather History & Observations

Time (HST) Temp. Windchill Dew Point Humidity Pressure Visibility Wind Dir Wind Speed Gust Speed Precip Events Conditions
12:16 AM 37.4 °F 27.5 °F 26.6 °F 65% 30.42 in 10.0 mi West 18.4 mph - N/A   Mostly Cloudy
12:36 AM 37.4 °F 27.2 °F 26.6 °F 65% 30.43 in 10.0 mi West 19.6 mph 24.2 mph N/A   Scattered Clouds
12:56 AM 37.4 °F 26.4 °F 30.2 °F 75% 30.44 in 10.0 mi West 23.0 mph 28.8 mph N/A   Mostly Cloudy
1:16 AM 37.4 °F 28.2 °F 30.2 °F 75% 30.45 in 10.0 mi West 16.1 mph - N/A   Mostly Cloudy
1:36 AM 37.4 °F 27.2 °F 28.4 °F 70% 30.46 in 10.0 mi West 19.6 mph 26.5 mph N/A   Mostly Cloudy
1:56 AM 37.4 °F 25.6 °F 26.6 °F 65% 30.46 in 10.0 mi West 26.5 mph 32.2 mph N/A   Mostly Cloudy
2:16 AM 39.2 °F 27.8 °F 26.6 °F 61% 30.47 in 10.0 mi West 27.6 mph 36.8 mph N/A   Scattered Clouds
2:36 AM 37.4 °F 27.5 °F 26.6 °F 65% 30.47 in 10.0 mi West 18.4 mph 25.3 mph N/A   Partly Cloudy
2:56 AM 37.4 °F 27.8 °F 26.6 °F 65% 30.48 in 10.0 mi West 17.3 mph - N/A   Scattered Clouds
3:16 AM 39.2 °F 29.8 °F 28.4 °F 65% 30.49 in 10.0 mi West 18.4 mph - N/A   Mostly Cloudy
3:36 AM 39.2 °F 29.3 °F 28.4 °F 65% 30.49 in 10.0 mi WSW 20.7 mph - N/A   Overcast
3:56 AM 39.2 °F 29.6 °F 28.4 °F 65% 30.50 in 10.0 mi West 19.6 mph 24.2 mph N/A   Mostly Cloudy
4:16 AM 39.2 °F 27.8 °F 26.6 °F 61% 30.52 in 10.0 mi West 27.6 mph 38.0 mph N/A   Mostly Cloudy
4:36 AM 39.2 °F 29.8 °F 28.4 °F 65% 30.52 in 10.0 mi West 18.4 mph 28.8 mph N/A   Scattered Clouds
4:56 AM 39.2 °F 29.3 °F 26.6 °F 61% 30.53 in 10.0 mi West 20.7 mph 26.5 mph N/A   Scattered Clouds
5:16 AM 39.2 °F 27.4 °F 26.6 °F 61% 30.54 in 10.0 mi West 29.9 mph 38.0 mph N/A   Mostly Cloudy
5:36 AM 39.2 °F 28.7 °F 28.4 °F 65% 30.55 in 10.0 mi West 23.0 mph 35.7 mph N/A   Overcast
5:56 AM 39.2 °F 28.0 °F 28.4 °F 65% 30.56 in 10.0 mi West 26.5 mph 32.2 mph N/A   Overcast
6:16 AM 39.2 °F 28.5 °F 28.4 °F 65% 30.57 in 10.0 mi West 24.2 mph 33.4 mph N/A   Scattered Clouds
6:36 AM 39.2 °F 29.6 °F 30.2 °F 70% 30.58 in 10.0 mi West 19.6 mph 24.2 mph N/A   Scattered Clouds
6:56 AM 39.2 °F 28.5 °F 28.4 °F 65% 30.59 in 10.0 mi West 24.2 mph 28.8 mph N/A   Mostly Cloudy
7:16 AM 39.2 °F 28.3 °F 28.4 °F 65% 30.61 in 10.0 mi West 25.3 mph 36.8 mph N/A   Scattered Clouds
7:36 AM 39.2 °F 27.8 °F 28.4 °F 65% 30.61 in 10.0 mi West 27.6 mph 33.4 mph N/A   Partly Cloudy
7:56 AM 39.2 °F 29.0 °F 28.4 °F 65% 30.61 in 10.0 mi West 21.9 mph 36.8 mph N/A   Scattered Clouds
8:16 AM 39.2 °F 29.0 °F 28.4 °F 65% 30.61 in 10.0 mi West 21.9 mph 28.8 mph N/A   Partly Cloudy
8:36 AM 39.2 °F 29.6 °F 30.2 °F 70% 30.62 in 10.0 mi WSW 19.6 mph 26.5 mph N/A   Partly Cloudy
8:56 AM 39.2 °F 29.6 °F 30.2 °F 70% 30.63 in 10.0 mi West 19.6 mph - N/A   Clear
9:16 AM 39.2 °F 29.0 °F 30.2 °F 70% 30.64 in 10.0 mi WSW 21.9 mph 26.5 mph N/A   Clear
9:36 AM 39.2 °F 29.0 °F 32.0 °F 75% 30.64 in 9.0 mi WSW 21.9 mph 26.5 mph N/A   Clear
9:56 AM 39.2 °F 27.8 °F 33.8 °F 81% 30.66 in 10.0 mi WSW 27.6 mph 33.4 mph N/A   Scattered Clouds
10:16 AM 39.2 °F 28.3 °F 33.8 °F 81% 30.67 in 10.0 mi WSW 25.3 mph 28.8 mph N/A   Mostly Cloudy
10:36 AM 41.0 °F 31.1 °F 33.8 °F 76% 30.68 in 10.0 mi WSW 23.0 mph 29.9 mph N/A   Partly Cloudy
10:56 AM 41.0 °F 30.5 °F 33.8 °F 76% 30.69 in 10.0 mi WSW 26.5 mph 31.1 mph N/A   Scattered Clouds
11:16 AM 41.0 °F 31.4 °F 33.8 °F 76% 30.69 in 10.0 mi WSW 21.9 mph 33.4 mph N/A   Mostly Cloudy
11:36 AM 39.2 °F 29.0 °F 33.8 °F 81% 30.70 in 6.0 mi WSW 21.9 mph 33.4 mph N/A   Mostly Cloudy
11:56 AM 41.0 °F 32.8 °F 33.8 °F 76% 30.71 in 10.0 mi WSW 16.1 mph - N/A   Scattered Clouds
12:16 PM 42.8 °F 35.1 °F 33.8 °F 70% 30.72 in 10.0 mi WSW 16.1 mph - N/A   Scattered Clouds
12:36 PM 42.8 °F 33.1 °F 33.8 °F 70% 30.72 in 10.0 mi WSW 25.3 mph - N/A   Scattered Clouds
12:56 PM 42.8 °F 33.5 °F 33.8 °F 70% 30.71 in 10.0 mi WSW 23.0 mph 29.9 mph N/A   Scattered Clouds
1:16 PM 42.8 °F 33.3 °F 33.8 °F 70% 30.71 in 10.0 mi WSW 24.2 mph 33.4 mph N/A   Scattered Clouds
1:36 PM 42.8 °F 32.9 °F 33.8 °F 70% 30.71 in 10.0 mi WSW 26.5 mph 34.5 mph N/A   Mostly Cloudy
1:56 PM 42.8 °F 32.3 °F 33.8 °F 70% 30.71 in 10.0 mi WSW 29.9 mph 36.8 mph N/A   Mostly Cloudy
2:16 PM 42.8 °F 32.7 °F 33.8 °F 70% 30.71 in 10.0 mi WSW 27.6 mph 33.4 mph N/A   Partly Cloudy
2:36 PM 42.8 °F 33.8 °F 33.8 °F 70% 30.73 in 10.0 mi West 21.9 mph 33.4 mph N/A   Clear
2:56 PM 42.8 °F 33.3 °F 33.8 °F 70% 30.73 in 10.0 mi WSW 24.2 mph 33.4 mph N/A   Scattered Clouds
3:16 PM 42.8 °F 33.3 °F 33.8 °F 70% 30.74 in 10.0 mi WSW 24.2 mph 27.6 mph N/A   Scattered Clouds
3:36 PM 42.8 °F 32.5 °F 33.8 °F 70% 30.74 in 10.0 mi WSW 28.8 mph 35.7 mph N/A   Scattered Clouds
3:56 PM 42.8 °F 32.9 °F 33.8 °F 70% 30.73 in 10.0 mi West 26.5 mph 36.8 mph N/A   Mostly Cloudy
4:16 PM 41.0 °F 30.5 °F 32.0 °F 70% 30.74 in 10.0 mi WSW 26.5 mph 33.4 mph N/A   Partly Cloudy
4:36 PM 41.0 °F 31.6 °F 32.0 °F 70% 30.75 in 10.0 mi WSW 20.7 mph 29.9 mph N/A   Clear
4:56 PM 42.8 °F 34.8 °F 33.8 °F 70% 30.75 in 10.0 mi WSW 17.3 mph 32.2 mph N/A   Mostly Cloudy
5:16 PM 42.8 °F 34.8 °F 32.0 °F 66% 30.76 in 10.0 mi WSW 17.3 mph - N/A   Overcast
5:36 PM 41.0 °F 33.1 °F 33.8 °F 76% 30.76 in 10.0 mi WSW 15.0 mph 24.2 mph N/A   Mostly Cloudy
5:56 PM 41.0 °F 33.1 °F 32.0 °F 70% 30.77 in 10.0 mi WSW 15.0 mph - N/A   Overcast
6:16 PM 41.0 °F 33.9 °F 32.0 °F 70% 30.78 in 10.0 mi WSW 12.7 mph 17.3 mph N/A   Overcast
6:36 PM 41.0 °F 35.8 °F 32.0 °F 70% 30.79 in 10.0 mi SW 8.1 mph - N/A   Overcast
6:56 PM 41.0 °F 34.7 °F 32.0 °F 70% 30.79 in 10.0 mi SW 10.4 mph - N/A   Overcast
7:16 PM 41.0 °F 33.5 °F 33.8 °F 76% 30.79 in 10.0 mi WSW 13.8 mph 20.7 mph N/A   Overcast
7:36 PM 41.0 °F 33.9 °F 33.8 °F 76% 30.80 in 10.0 mi WSW 12.7 mph 19.6 mph N/A   Overcast
7:56 PM 41.0 °F 34.7 °F 33.8 °F 76% 30.81 in 10.0 mi SW 10.4 mph - N/A   Overcast
8:16 PM 41.0 °F 33.1 °F 33.8 °F 76% 30.82 in 10.0 mi WSW 15.0 mph - N/A   Overcast
8:36 PM 41.0 °F 33.1 °F 33.8 °F 76% 30.82 in 10.0 mi WSW 15.0 mph - N/A   Overcast
8:56 PM 39.2 °F 32.0 °F 33.8 °F 81% 30.82 in 10.0 mi WSW 11.5 mph - N/A   Mostly Cloudy
9:16 PM 39.2 °F 32.0 °F 33.8 °F 81% 30.82 in 10.0 mi SW 11.5 mph - N/A   Overcast
9:36 PM 39.2 °F 31.6 °F 33.8 °F 81% 30.83 in 10.0 mi SW 12.7 mph - N/A   Overcast
9:56 PM 39.2 °F 32.5 °F 33.8 °F 81% 30.83 in 10.0 mi SW 10.4 mph - N/A   Overcast
10:16 PM 39.2 °F 30.8 °F 33.8 °F 81% 30.83 in 10.0 mi SW 15.0 mph - N/A   Overcast
10:36 PM 41.0 °F 32.5 °F 33.8 °F 76% 30.83 in 10.0 mi SW 17.3 mph - N/A   Overcast
10:56 PM 41.0 °F 32.8 °F 33.8 °F 76% 30.84 in 10.0 mi SW 16.1 mph 21.9 mph N/A   Overcast
11:16 PM 41.0 °F 32.8 °F 33.8 °F 76% 30.85 in 10.0 mi WSW 16.1 mph - N/A   Overcast
11:36 PM 41.0 °F 32.2 °F 33.8 °F 76% 30.84 in 10.0 mi SW 18.4 mph - N/A   Overcast
11:56 PM 41.0 °F 32.5 °F 33.8 °F 76% 30.84 in 10.0 mi SW 17.3 mph - N/A   Overcast